W7TRD Weather Reports


Display with metric or nautical units.
time (UTC)temp
F
wind
direction
speed
MPH
gust
MPH
rain 1hr
in
rain 24hr
in
rain mn
in
humidity
%
barometer
mb
20260505124706 53 194 0.0 2.0 0.00 0.00 0.00 97 1016.0
20260505124203 53 174 0.0 1.0 0.00 0.00 0.00 96 1016.0
20260505123659 53 176 0.0 1.0 0.00 0.00 0.00 96 1016.0
20260505123156 53 186 0.0 1.0 0.00 0.00 0.00 96 1016.1
20260505122653 53 161 1.0 1.0 0.00 0.00 0.00 96 1015.9
20260505122150 53 188 0.0 1.0 0.00 0.00 0.00 96 1015.9
20260505121646 53 244 1.0 2.0 0.00 0.00 0.00 96 1016.1
20260505121143 53 184 0.0 1.0 0.00 0.00 0.00 97 1015.9
20260505120640 53 173 0.0 0.0 0.00 0.00 0.00 97 1016.1
20260505120136 53 175 0.0 1.0 0.00 0.00 0.00 97 1015.9
20260505115635 53 178 0.0 2.0 0.00 0.00 0.00 97 1015.9
20260505115133 53 183 0.0 1.0 0.00 0.00 0.00 97 1016.0
20260505114630 53 177 0.0 0.0 0.00 0.00 0.00 96 1015.8
20260505114126 53 175 0.0 0.0 0.00 0.00 0.00 96 1015.9
20260505113623 53 165 0.0 1.0 0.00 0.00 0.00 96 1015.8
20260505113120 53 173 0.0 1.0 0.00 0.00 0.00 96 1015.9
20260505112615 54 178 0.0 1.0 0.00 0.00 0.00 95 1015.8
20260505112115 54 114 1.0 1.0 0.00 0.00 0.00 95 1015.8
20260505111614 54 172 0.0 1.0 0.00 0.00 0.00 94 1015.9
20260505111110 54 124 1.0 1.0 0.00 0.00 0.00 93 1015.9
20260505110606 54 175 0.0 0.0 0.00 0.00 0.00 92 1015.7
20260505110104 54 174 0.0 0.0 0.00 0.00 0.00 91 1015.8
20260505102039 54 176 0.0 1.0 0.00 0.00 0.00 90 1015.3
20260505101537 54 178 0.0 0.0 0.00 0.00 0.00 90 1015.3
20260505101033 54 176 0.0 0.0 0.00 0.00 0.00 90 1015.3
20260505100530 54 164 0.0 2.0 0.00 0.00 0.00 90 1015.4
20260505100027 54 179 0.0 0.0 0.00 0.00 0.00 90 1015.3
20260505095523 54 177 0.0 0.0 0.00 0.00 0.00 90 1015.4
20260505095020 54 162 0.0 0.0 0.00 0.00 0.00 90 1015.3
20260505094516 54 184 0.0 0.0 0.00 0.00 0.00 90 1015.4
20260505094013 54 176 0.0 1.0 0.00 0.00 0.00 90 1015.5
20260505093509 54 156 0.0 1.0 0.00 0.00 0.00 90 1015.3
20260505093007 54 157 1.0 2.0 0.00 0.00 0.00 90 1015.3
20260505092504 54 148 0.0 1.0 0.00 0.00 0.00 90 1015.4
20260505092002 54 166 0.0 1.0 0.00 0.00 0.00 90 1015.2
20260505091459 54 170 0.0 0.0 0.00 0.00 0.00 90 1015.2
20260505090957 54 173 0.0 1.0 0.00 0.00 0.00 90 1015.2
20260505090455 54 177 0.0 0.0 0.00 0.00 0.00 90 1015.1
20260505085952 54 177 0.0 1.0 0.00 0.00 0.00 91 1015.0
20260505085450 53 205 1.0 1.0 0.00 0.00 0.00 91 1014.8
20260505084948 53 176 0.0 0.0 0.00 0.00 0.00 91 1015.1
20260505084446 53 172 0.0 0.0 0.00 0.00 0.00 91 1015.0
20260505083943 53 174 0.0 1.0 0.00 0.00 0.00 91 1014.9
20260505083440 53 178 0.0 0.0 0.00 0.00 0.00 90 1014.8
20260505082937 54 175 0.0 0.0 0.00 0.00 0.00 90 1014.8
20260505082432 54 161 0.0 2.0 0.00 0.00 0.00 90 1014.8
20260505081930 54 174 1.0 1.0 0.00 0.00 0.00 90 1014.8
20260505081426 54 167 0.0 0.0 0.00 0.00 0.00 90 1014.7
20260505080923 54 173 0.0 1.0 0.00 0.00 0.00 89 1014.8
20260505080419 54 179 0.0 1.0 0.00 0.00 0.00 89 1014.8
20260505075914 54 181 0.0 1.0 0.00 0.00 0.00 89 1014.7
20260505075412 54 181 0.0 0.0 0.00 0.00 0.00 89 1014.8
20260505074909 54 176 0.0 0.0 0.00 0.00 0.00 89 1014.9
20260505074406 54 196 0.0 2.0 0.00 0.00 0.00 89 1014.7
20260505073903 54 164 0.0 0.0 0.00 0.00 0.00 89 1014.5
20260505073401 54 155 0.0 2.0 0.00 0.00 0.00 89 1014.3
20260505072858 54 182 0.0 1.0 0.00 0.00 0.00 89 1014.3
20260505072354 54 145 0.0 1.0 0.00 0.00 0.00 89 1014.2
20260505071850 54 175 0.0 2.0 0.00 0.00 0.00 89 1014.1
20260505071346 54 178 0.0 0.0 0.00 0.00 0.00 89 1014.0
20260505070845 54 176 0.0 0.0 0.00 0.00 0.00 89 1014.3
20260505070341 54 177 0.0 0.0 0.00 0.00 0.00 89 1014.3
20260505065836 54 177 0.0 0.0 0.00 0.00 0.00 89 1014.2
20260505065333 55 170 0.0 1.0 0.00 0.00 0.00 88 1014.3
20260505064830 55 164 0.0 0.0 0.00 0.00 0.00 88 1013.9
20260505064327 55 166 0.0 1.0 0.00 0.00 0.00 88 1013.9
20260505063826 55 176 0.0 0.0 0.00 0.00 0.00 87 1013.8
20260505063321 55 183 0.0 1.0 0.00 0.00 0.00 86 1013.7
20260505062818 55 194 1.0 1.0 0.00 0.00 0.00 86 1013.7
20260505062316 56 169 0.0 1.0 0.00 0.00 0.00 85 1013.5
20260505061812 56 172 0.0 1.0 0.00 0.00 0.00 85 1013.5
20260505061310 56 174 0.0 0.0 0.00 0.00 0.00 84 1013.2
20260505060808 57 205 0.0 0.0 0.00 0.00 0.00 84 1013.5
20260505060304 57 251 1.0 1.0 0.00 0.00 0.00 83 1013.3
20260505055800 57 186 0.0 4.0 0.00 0.00 0.00 82 1013.4
20260505055256 57 173 1.0 2.0 0.00 0.00 0.00 82 1013.2
20260505054754 58 173 1.0 3.0 0.00 0.00 0.00 81 1013.0
20260505054251 58 171 1.0 2.0 0.00 0.00 0.00 81 1013.1
20260505053749 58 302 2.0 2.0 0.00 0.00 0.00 80 1013.1
20260505053246 59 173 1.0 3.0 0.00 0.00 0.00 80 1012.9
20260505052743 59 162 2.0 2.0 0.00 0.00 0.00 79 1013.4
20260505052240 59 166 0.0 4.0 0.00 0.00 0.00 78 1013.2
20260505051737 60 178 2.0 3.0 0.00 0.00 0.00 77 1013.2
20260505051235 60 201 0.0 4.0 0.00 0.00 0.00 76 1013.2
20260505050732 61 25 1.0 2.0 0.00 0.00 0.00 76 1013.1
20260505050231 61 252 1.0 4.0 0.00 0.00 0.00 75 1013.1
20260505041700 63 192 0.0 1.0 0.00 0.00 0.00 72 1012.4
20260505041158 64 213 1.0 1.0 0.00 0.00 0.00 71 1012.3
20260505040654 64 193 1.0 1.0 0.00 0.00 0.00 71 1012.3
20260505040152 64 184 1.0 1.0 0.00 0.00 0.00 70 1012.1
20260505035648 64 170 0.0 1.0 0.00 0.00 0.00 70 1012.1
20260505035144 64 198 2.0 2.0 0.00 0.00 0.00 69 1012.0
20260505034641 65 351 2.0 3.0 0.00 0.00 0.00 68 1012.0
20260505034138 65 116 1.0 3.0 0.00 0.00 0.00 68 1011.8
20260505033634 66 178 0.0 3.0 0.00 0.00 0.00 67 1011.7
20260505033133 66 172 0.0 3.0 0.00 0.00 0.00 67 1011.8
20260505032631 67 173 0.0 1.0 0.00 0.00 0.00 67 1011.6
20260505032127 68 196 3.0 6.0 0.00 0.00 0.00 65 1011.5
20260505031624 68 113 1.0 3.0 0.00 0.00 0.00 65 1011.4
20260505031120 69 157 0.0 1.0 0.00 0.00 0.00 65 1011.3
20260505030617 70 213 1.0 1.0 0.00 0.00 0.00 66 1011.2
20260505030113 70 172 0.0 1.0 0.00 0.00 0.00 69 1011.1
20260505025609 71 169 0.0 1.0 0.00 0.00 0.00 68 1011.0
20260505025108 71 171 2.0 3.0 0.00 0.00 0.00 67 1010.9
20260505024605 71 171 1.0 3.0 0.00 0.00 0.00 67 1010.8
20260505024102 72 245 1.0 3.0 0.00 0.00 0.00 66 1010.9
20260505023559 72 156 1.0 3.0 0.00 0.00 0.00 65 1010.8
20260505023057 73 160 1.0 3.0 0.00 0.00 0.00 64 1010.7
20260505022554 73 168 2.0 4.0 0.00 0.00 0.00 63 1010.9
20260505022051 74 173 1.0 2.0 0.00 0.00 0.00 62 1010.6
20260505021548 74 174 1.0 2.0 0.00 0.00 0.00 61 1010.8
20260505021044 75 173 1.0 4.0 0.00 0.00 0.00 61 1010.9
20260505020544 75 173 0.0 2.0 0.00 0.00 0.00 60 1010.9
20260505020041 76 174 1.0 2.0 0.00 0.00 0.00 59 1010.8
20260505015538 75 174 0.0 3.0 0.00 0.00 0.00 60 1010.8
20260505015035 75 171 1.0 2.0 0.00 0.00 0.00 59 1010.9
20260505014532 76 173 0.0 3.0 0.00 0.00 0.00 58 1010.8
20260505014029 76 187 1.0 2.0 0.00 0.00 0.00 57 1010.8
20260505013527 77 165 2.0 2.0 0.00 0.00 0.00 57 1010.8
20260505013024 77 185 0.0 1.0 0.00 0.00 0.00 57 1010.9
20260505012522 77 175 1.0 2.0 0.00 0.00 0.00 56 1011.0
20260505012019 76 200 1.0 2.0 0.00 0.00 0.00 58 1010.7
20260505011514 76 138 2.0 2.0 0.00 0.00 0.00 56 1011.0
20260505011011 78 130 1.0 2.0 0.00 0.00 0.00 55 1011.1
20260505010506 77 225 1.0 2.0 0.00 0.00 0.00 54 1010.8
20260505010003 78 233 1.0 1.0 0.00 0.00 0.00 53 1011.1
20260505005500 77 168 1.0 1.0 0.00 0.00 0.00 54 1011.2
20260505004958 76 196 0.0 2.0 0.00 0.00 0.00 56 1011.1
20260505004454 78 179 1.0 2.0 0.00 0.00 0.00 53 1011.2
20260505003951 78 172 1.0 2.0 0.00 0.00 0.00 52 1011.2
20260505003448 77 174 1.0 2.0 0.00 0.00 0.00 55 1011.2
20260505002944 77 225 1.0 3.0 0.00 0.00 0.00 54 1011.3
20260505002440 77 177 0.0 2.0 0.00 0.00 0.00 53 1011.3
20260505001939 77 213 1.0 2.0 0.00 0.00 0.00 54 1011.5
20260505001436 77 215 1.0 2.0 0.00 0.00 0.00 53 1011.2
20260505000933 77 158 0.0 1.0 0.00 0.00 0.00 54 1011.4
20260505000431 76 198 2.0 4.0 0.00 0.00 0.00 54 1011.5
20260504235928 75 183 1.0 4.0 0.00 0.00 0.00 57 1011.2
20260504235425 76 202 1.0 3.0 0.00 0.00 0.00 54 1011.5
20260504234921 76 176 1.0 3.0 0.00 0.00 0.00 54 1011.5
20260504234419 77 166 1.0 3.0 0.00 0.00 0.00 53 1011.6
20260504233915 77 206 0.0 2.0 0.00 0.00 0.00 53 1011.6
20260504233411 76 217 0.0 3.0 0.00 0.00 0.00 54 1011.6
20260504232908 76 184 0.0 1.0 0.00 0.00 0.00 54 1011.6
20260504232405 76 188 2.0 3.0 0.00 0.00 0.00 55 1011.5
20260504231902 74 211 1.0 3.0 0.00 0.00 0.00 57 1011.7
20260504231358 74 126 1.0 2.0 0.00 0.00 0.00 56 1011.5
20260504230854 76 160 1.0 4.0 0.00 0.00 0.00 54 1012.0
20260504230352 76 178 2.0 2.0 0.00 0.00 0.00 55 1011.8
20260504225851 74 134 2.0 2.0 0.00 0.00 0.00 55 1011.9
20260504225347 74 148 3.0 7.0 0.00 0.00 0.00 56 1012.0
20260504224844 76 220 2.0 3.0 0.00 0.00 0.00 55 1012.1
20260504224341 75 204 3.0 3.0 0.00 0.00 0.00 55 1011.9
20260504223838 75 180 2.0 3.0 0.00 0.00 0.00 56 1012.2
20260504223333 74 191 2.0 4.0 0.00 0.00 0.00 56 1012.3
20260504222830 74 169 1.0 3.0 0.00 0.00 0.00 57 1012.2
20260504222327 75 110 2.0 3.0 0.00 0.00 0.00 56 1012.4
20260504221826 74 201 0.0 3.0 0.00 0.00 0.00 58 1012.4
20260504221322 74 98 1.0 2.0 0.00 0.00 0.00 55 1012.6
20260504220819 72 181 1.0 3.0 0.00 0.00 0.00 59 1012.4
20260504220315 73 171 0.0 3.0 0.00 0.00 0.00 60 1012.6
20260504215813 73 184 1.0 4.0 0.00 0.00 0.00 56 1012.7
20260504215309 71 118 3.0 3.0 0.00 0.00 0.00 58 1012.6
20260504214805 72 176 1.0 4.0 0.00 0.00 0.00 59 1012.6
20260504214302 72 186 2.0 3.0 0.00 0.00 0.00 60 1012.8
20260504213759 72 161 3.0 3.0 0.00 0.00 0.00 57 1012.8
20260504213254 72 189 2.0 4.0 0.00 0.00 0.00 59 1012.9
20260504212752 73 185 1.0 1.0 0.00 0.00 0.00 57 1012.8
20260504212248 71 161 0.0 1.0 0.00 0.00 0.00 60 1012.9
20260504211746 71 93 2.0 4.0 0.00 0.00 0.00 60 1013.0
20260504211242 71 184 0.0 6.0 0.00 0.00 0.00 59 1013.2
20260504210740 70 142 3.0 4.0 0.00 0.00 0.00 61 1013.2
20260504210237 70 173 0.0 1.0 0.00 0.00 0.00 62 1013.5
20260504205733 71 164 2.0 4.0 0.00 0.00 0.00 60 1013.3
20260504205231 71 226 2.0 2.0 0.00 0.00 0.00 59 1013.4
20260504204729 69 160 1.0 3.0 0.00 0.00 0.00 60 1013.5
20260504204227 70 175 0.0 3.0 0.00 0.00 0.00 62 1013.6
20260504203727 69 127 1.0 3.0 0.00 0.00 0.00 63 1013.6
20260504203224 69 152 0.0 2.0 0.00 0.00 0.00 62 1013.7
20260504202723 68 141 2.0 4.0 0.00 0.00 0.00 64 1013.9
20260504202221 68 116 2.0 6.0 0.00 0.00 0.00 66 1013.9
20260504201718 68 171 3.0 7.0 0.00 0.00 0.00 65 1013.7
20260504201215 68 178 0.0 3.0 0.00 0.00 0.00 64 1013.8
20260504200713 67 188 1.0 4.0 0.00 0.00 0.00 65 1014.1
20260504200208 67 163 1.0 3.0 0.00 0.00 0.00 65 1014.0
20260504195705 67 175 1.0 4.0 0.00 0.00 0.00 66 1014.1
20260504195201 68 161 2.0 3.0 0.00 0.00 0.00 65 1014.1
20260504194658 67 172 2.0 4.0 0.00 0.00 0.00 65 1014.2
20260504194154 66 137 2.0 4.0 0.00 0.00 0.00 66 1014.3
20260504193651 66 146 5.0 7.0 0.00 0.00 0.00 66 1014.1
20260504193148 66 167 2.0 4.0 0.00 0.00 0.00 66 1014.1
20260504192646 66 187 1.0 3.0 0.00 0.00 0.00 67 1014.3
20260504192144 67 184 1.0 3.0 0.00 0.00 0.00 67 1014.4
20260504191643 66 171 3.0 3.0 0.00 0.00 0.00 67 1014.4
20260504191138 64 222 1.0 6.0 0.00 0.00 0.00 69 1014.3
20260504190634 66 115 1.0 3.0 0.00 0.00 0.00 68 1014.5
20260504190131 65 111 1.0 3.0 0.00 0.00 0.00 69 1014.5
20260504185627 65 166 2.0 8.0 0.00 0.00 0.00 69 1014.4
20260504185124 66 207 2.0 4.0 0.00 0.00 0.00 68 1014.5
20260504184620 67 176 2.0 3.0 0.00 0.00 0.00 66 1014.5
20260504184115 65 119 4.0 6.0 0.00 0.00 0.00 69 1014.8
20260504183613 64 180 2.0 3.0 0.00 0.00 0.00 71 1014.7
20260504183111 64 181 2.0 3.0 0.00 0.00 0.00 70 1014.6
20260504182608 64 140 1.0 2.0 0.00 0.00 0.00 69 1014.5
20260504182105 62 160 2.0 3.0 0.00 0.00 0.00 73 1014.5
20260504181602 62 43 4.0 6.0 0.00 0.00 0.00 74 1014.6
20260504181100 62 174 1.0 6.0 0.00 0.00 0.00 75 1014.6
20260504180559 62 53 2.0 4.0 0.00 0.00 0.00 74 1014.5
20260504180057 61 188 0.0 2.0 0.00 0.00 0.00 75 1014.6
20260504175554 61 180 1.0 4.0 0.00 0.00 0.00 75 1014.5
20260504175051 61 183 2.0 3.0 0.00 0.00 0.00 76 1014.5
20260504174549 60 148 3.0 4.0 0.00 0.00 0.00 76 1014.8
20260504174045 60 146 2.0 4.0 0.00 0.00 0.00 77 1014.5
20260504173542 60 200 2.0 4.0 0.00 0.00 0.00 78 1014.4
20260504173040 60 166 2.0 3.0 0.00 0.00 0.00 77 1014.7
20260504172536 60 177 1.0 3.0 0.00 0.00 0.00 78 1014.7
20260504172032 60 208 1.0 6.0 0.00 0.00 0.00 78 1014.5
20260504171529 60 198 2.0 4.0 0.00 0.00 0.00 77 1014.5
20260504171026 59 167 1.0 6.0 0.00 0.00 0.00 78 1014.5
20260504170522 60 201 1.0 6.0 0.00 0.00 0.00 78 1014.3
20260504160442 59 164 2.0 4.0 0.00 0.00 0.00 78 1014.2
20260504150906 59 154 1.0 2.0 0.00 0.00 0.00 78 1013.9
20260504150403 58 182 2.0 6.0 0.00 0.00 0.00 79 1013.8
20260504141333 58 173 1.0 3.0 0.00 0.00 0.00 81 1013.3
20260504140829 57 173 1.0 1.0 0.00 0.00 0.00 82 1013.2
20260504140325 57 166 0.0 1.0 0.00 0.00 0.00 83 1013.0
20260504130754 56 174 1.0 3.0 0.00 0.00 0.00 83 1012.2
20260504130250 56 172 1.0 6.0 0.00 0.00 0.00 82 1012.0